This demonstration page uses our WeatherBlox Daily Observations layout. Learn more.

Left ArrowRight Arrow

Hourly Observations for May 16, 2016

Temp ( °F °C ) Dew Point ( °F °C ) Humidity (%) Winds ( mph kmh ) Pressure ( in mb ) Visibility ( mi km ) Precip ( " mm )
12:52 am 00:52 Cloudy with Light Rain 56 13.3 44 6.7 65 65 ESE 6 9 30.11 1020 10 16 0.01 0.25
1:52 am 01:52 Cloudy 56 13.3 44 6.7 65 65 SE 7 11 30.11 1020 10 16 0.00 0.03
2:52 am 02:52 Cloudy 56 13.3 44 6.7 65 65 ESE 8 13 30.09 1019 10 16 0.00 0.03
3:52 am 03:52 Cloudy with Light Rain 56 13.3 43 6.1 62 62 SE 9 15 30.08 1019 10 16 0.00 0.03
4:52 am 04:52 Cloudy with Light Rain 53 11.7 46 7.8 77 77 SE 6 9 30.09 1019 10 16 0.01 0.25
5:52 am 05:52 Cloudy with Light Rain 51 10.6 46 7.8 83 83 SE 8 13 30.09 1019 8 13 0.08 2.03
6:52 am 06:52 Cloudy with Light Rain 51 10.6 46 7.8 83 83 SE 6 9 30.11 1020 7 11 0.07 1.78
7:52 am 07:52 Cloudy with Rain 50 10 46 7.8 86 86 ESE 10 17 30.11 1020 6 10 0.08 2.03
8:52 am 08:52 Cloudy with Light Rain 51 10.6 47 8.3 86 86 ESE 12 19 30.11 1020 7 11 0.09 2.29
9:52 am 09:52 Cloudy with Light Rain 51 10.6 47 8.3 86 86 ESE 14 22 30.10 1019 8 13 0.05 1.27
10:52 am 10:52 Cloudy with Rain 52 11.1 48 8.9 86 86 SE 14 22 30.10 1019 4 6 0.05 1.27
11:52 am 11:52 Cloudy with Rain 52 11 48 9 88 88 SE 14 22 30.12 1020 4 6 0.00 0.00
12:52 pm 12:52 Cloudy with Rain 52 11.1 48 8.9 86 86 SE 17 28 30.07 1018 5 8 0.14 3.56
1:11 pm 13:11 Cloudy with Heavy Rain 52 11.1 48 8.9 86 86 ESE 14 22 30.06 1018 3 4 0.09 2.29
1:23 pm 13:23 Cloudy with Rain 52 11.1 48 8.9 86 86 ESE 15 24 30.06 1018 5 8 0.12 3.05
1:52 pm 13:52 Cloudy with Light Rain 52 11.1 48 8.9 86 86 ESE 16 26 30.03 1017 10 16 0.15 3.81
2:52 pm 14:52 Cloudy with Light Rain 53 11.7 49 9.4 86 86 SE 18 30 30.00 1016 8 13 0.00 0.03
3:37 pm 15:37 Cloudy with Light Rain 54 12.2 50 10 87 87 SE 15 24 30.00 1016 10 16 0.01 0.25
3:52 pm 15:52 Cloudy with Rain 54 12.2 50 10 87 87 VRB 7 11 30.02 1017 3 5 0.02 0.51
4:08 pm 16:08 Cloudy with Light Rain 54 12 50 10 88 88 SE 14 22 30.00 1016 7 11 0.00 0.00
4:30 pm 16:30 Cloudy with Rain 54 12 52 11 94 94 SSE 13 20 30.00 1016 5 8 0.00 0.00
4:52 pm 16:52 Cloudy with Rain 54 12.2 50 10 87 87 SSE 17 28 29.98 1015 5 8 0.10 2.54
5:14 pm 17:14 Mostly Cloudy 54 12 52 11 94 94 SSE 17 28 29.97 1015 10 16 0.00 0.00
5:21 pm 17:21 Mostly Cloudy 54 12.2 51 10.6 90 90 SE 17 28 29.97 1015 10 16 0.01 0.25
5:52 pm 17:52 Cloudy 56 13.3 51 10.6 84 84 SE 17 28 29.96 1015 10 16 0.01 0.25
6:52 pm 18:52 Cloudy 54 12.2 50 10 87 87 SSE 21 33 29.97 1015 10 16 0.00 0.03
7:05 pm 19:05 Cloudy with Light Rain 54 12.2 50 10 87 87 SSE 21 33 29.97 1015 10 16 0.00 0.03
7:52 pm 19:52 Cloudy with Light Rain 54 12.2 50 10 87 87 SSE 18 30 29.96 1015 5 8 0.00 0.03
8:35 pm 20:35 Cloudy with Light Rain 53 11.7 51 10.6 93 93 SSE 13 20 29.97 1015 7 11 0.01 0.25
8:52 pm 20:52 Cloudy with Light Rain 53 11.7 50 10 89 89 SSE 17 28 29.97 1015 8 13 0.03 0.76
8:59 pm 20:59 Cloudy with Rain 53 11.7 50 10 89 89 SE 18 30 29.97 1015 6 10 0.01 0.25
9:39 pm 21:39 Cloudy with Light Rain 53 11.7 51 10.6 93 93 SSE 16 26 29.97 1015 9 14 0.07 1.78
9:52 pm 21:52 Cloudy with Heavy Rain 53 11.7 51 10.6 93 93 SE 13 20 29.98 1015 3 4 0.16 4.06
10:04 pm 22:04 Cloudy with Heavy Rain 54 12 52 11 94 94 SE 13 20 29.97 1015 3 5 0.00 0.00
10:30 pm 22:30 Cloudy with Heavy Rain 54 12 52 11 94 94 SE 16 26 29.97 1015 3 4 0.00 0.00
10:48 pm 22:48 Cloudy with Heavy Rain 54 12 52 11 94 94 SE 9 15 30.00 1016 3 5 0.00 0.00
10:52 pm 22:52 Cloudy with Light Rain 53 11.7 51 10.6 93 93 SSE 9 15 29.99 1016 4 6 0.44 11.18
11:01 pm 23:01 Cloudy with Nearby Thunderstorms 53 11.7 50 10 89 89 SE 12 19 30.00 1016 5 8 0.02 0.51
11:27 pm 23:27 Cloudy with Light Rain 54 12 52 11 94 94 SSE 10 17 30.00 1016 5 8 0.00 0.00
11:42 pm 23:42 Cloudy with Nearby Thunderstorms 54 12 52 11 94 94 SE 8 13 30.00 1016 10 16 0.00 0.00
11:52 pm 23:52 Cloudy with Nearby Thunderstorms 54 12.2 51 10.6 90 90 VRB 3 6 30.00 1016 10 16 0.18 4.57

Powered by AerisWeather